www.pogodaiklimat.ru

АРХИВ ПОГОДЫ в Симферополе

Время (UTC), дата Ветер
(напр.,м/с)
 
Видим.   Явления Облачность Т
(С)
Тd
(С)
f
(%)
Тe
(С)
Тes
(С)
Комфортность P
(гПа)
Po
(гПа)
Тmin
(С)
Tmax
(С)
R
(мм)
S
(см)
15 11.01 ЮЗ 8 10 км {ливн. осадки} 8/8 1000 м
[Sc]
+2.4 -0.9 79 -4 -4 по сезону 1021.2 998.6
18 11.01 Ю 5
{12}
10 км {ливн. осадки} 8/8 840 м
[Sc]
+1.8 -1.1 81 -4 -4 по сезону 1020.7 998.1 +6.6 4
21 11.01 Ю 4 10 км в посл. час дождь 10/0
[Ac As]
+2.5 -0.6 80 -2 -2 по сезону 1020.2 997.6
00 12.01 ЮВ 3
{10}
10 км {ливн. осадки, дождь} 10/5 1300 м
[Cb calv Ac und]
+3.7 -0.7 73 0 0 тепло 1017.1 994.7
03 12.01 Ю 6 10 км 10/0
[Ac und]
+6.3 +1.0 69 +2 +2 тепло 1012.5 990.4
06 12.01 Ю 9-13
{14}
10 км 10/10 1500 м
[Cb calv]
+7.9 +0.8 61 +3 +3 тепло 1010.5 988.6 +1.7 0.1
09 12.01 З 5
{13}
600 м слабый дождь {ливн. осадки} туман ?/? +3.3 +3.0 98 -2 -2 по сезону 1010.8 988.5
12 12.01 СЗ 3 1200 м сильный снег {ливн. осадки} 10/9 420 м
[Frnb As op]
+0.1 -0.2 98 -5 -5 прохладно 1010.1 987.6
15 12.01 ЮЗ 3 1200 м слабый снег {туман} 10/8 300 м
[Frnb As op]
-0.5 -0.6 99 -6 -6 прохладно 1011.9 989.3 8
18 12.01 ЮЗ 6 10 км в посл. час снег {туман} 10/10 1320 м
[Cb calv]
-0.3 -0.9 96 -7 -7 по сезону 1012.8 990.2 +8.0 11
21 12.01 З 5 1100 м ливневой снег 10/10 1000 м
[Cb calv]
-0.7 -1.1 97 -7 -7 по сезону 1014.0 991.3
00 13.01 З 2 10 км {ливн. осадки} 10/10 1110 м
[Sc]
-1.9 -3.6 88 -6 -6 по сезону 1016.3 993.5
03 13.01 Ю 3 10 км 10/10 1020 м
[Sc]
-2.3 -4.5 85 -7 -7 по сезону 1017.1 994.2 -5.1 4
06 13.01 Ю 4 10 км 3/3 1000 м
[Sc]
-3.3 -5.8 83 -9 -9 прохладно 1018.1 995.1 -5.7 1 9
09 13.01 Ю 4 10 км 8/8 600 м
[Sc]
+0.5 -2.2 82 -5 -4 по сезону 1018.9 996.2
12 13.01 Ю 5 10 км 9/9 1260 м
[Sc]
+1.5 -1.6 80 -4 -4 по сезону 1018.8 996.2
15 13.01 ЮВ 4 10 км 1/0
[Ac trans]
-0.6 -3.3 82 -6 -6 прохладно 1019.1 996.3
18 13.01 В 3 10 км 4/0
[Ci fib]
-1.5 -4.2 82 -6 -6 по сезону 1017.6 994.8 +2.1
21 13.01 ЮВ 5 10 км 10/0
[Ac trans Ci fib]
-0.6 -4.0 78 -7 -7 по сезону 1015.8 993.1
00 14.01 ЮВ 2 10 км 10/0
[Ac und]
-0.8 -4.2 78 -4 -4 по сезону 1014.8 992.1
03 14.01 ЮВ 7 10 км 10/0
[Ac und]
+3.6 -1.0 72 -2 -2 по сезону 1010.8 988.5
06 14.01 ЮВ 3 10 км 10/0
[Ac trans Ci fib]
+3.3 -0.7 75 -0 -0 тепло 1010.8 988.5 -3.2 6
09 14.01 ЮВ 5 10 км 10/0
[Ac trans Ci fib]
+6.2 +0.1 65 +2 +3 тепло 1009.8 987.8
12 14.01 ЮВ 8-10
{10}
10 км 10/8 1500 м
[Sc Ci sp]
+6.9 +0.3 63 +2 +2 по сезону 1009.6 987.6
15 14.01 ЮВ 5 10 км 10/3 1500 м
[Sc Ac und]
+6.1 +0.2 66 +2 +2 тепло 1009.5 987.5
18 14.01 Ю 5 10 км 10/6 1110 м
[Sc Ac und]
+6.0 +2.1 76 +2 +2 тепло 1009.8 987.8 +7.4
21 14.01 ЮВ 6 10 км 10/0
[Ac und]
+5.7 +1.1 72 +1 +1 тепло 1009.6 987.5
00 15.01 ЮВ 4 10 км 10/10 1230 м
[Sc]
+6.3 +1.0 69 +3 +3 тепло 1010.1 988.1
03 15.01 ЮВ 4 10 км 10/6 1000 м
[Sc Ac trans]
+6.5 -0.3 62 +3 +3 тепло 1009.9 987.9
06 15.01 З 2 10 км 10/6 1380 м
[Sc As op]
+5.7 +1.1 72 +3 +3 тепло 1011.7 989.6 +4.2
09 15.01 С 2 10 км в посл. час ливневой дождь 10/10 1200 м
[Cb calv]
+5.4 +3.7 89 +3 +3 тепло 1013.3 991.1
12 15.01 СЗ 4 2000 м в посл. час дождь {ливн. осадки} 10/10 90 м
[St]
+2.5 +2.2 98 -3 -3 по сезону 1015.0 992.6
15 15.01 штиль 0 3900 м дымка 10/0
[Ac und]
+2.2 +1.6 96 +1 +1 по сезону 1016.8 994.3 2
18 15.01 С 2 4100 м дымка 10/8 210 м
[St Ac und]
+2.1 +1.8 98 -1 -1 по сезону 1018.2 995.7 +5.8 2
21 15.01 С 3 100 м туман ?/? +0.9 +0.8 99 -4 -4 по сезону 1019.9 997.2
00 16.01 СВ 4 100 м туман ?/? +0.2 +0.1 99 -5 -5 по сезону 1021.4 998.6
03 16.01 СВ 4 6000 м дымка {туман} 10/10 180 м
[St]
0.0 -0.3 98 -6 -6 по сезону 1021.6 998.8 0.0
06 16.01 СВ 5 100 м туман [диам. гололёда 0 мм] ?/? -1.1 -1.4 98 -8 -8 по сезону 1022.1 999.2 -1.2
09 16.01 СВ 6 800 м туман ?/? -0.2 -0.3 99 -7 -7 прохладно 1022.4 999.6
12 16.01 СВ 7-10
{11}
10 км {туман} [диам. гололёда 2 мм] 10/3 240 м
[St Ac trans Ci fib]
+0.9 -0.4 91 -6 -6 прохладно 1021.0 998.3
15 16.01 СВ 10 1800 м дымка 10/10 100 м
[St]
-1.1 -1.5 97 -10 -10 холодно 1021.6 998.7
18 16.01 СВ 10-12
{15}
2900 м в посл. час туман [диам. гололёда 0 мм] 10/10 120 м
[St]
-1.6 -1.9 98 -11 -11 холодно 1021.5 998.6 +1.7
21 16.01 СВ 10-13
{14}
10 км [диам. гололёда 0 мм] 10/10 1500 м
[Sc]
-1.0 -2.4 90 -10 -10 прохладно 1022.1 999.2
00 17.01 СВ 10-13
{13}
2800 м слабый ливневой снег 10/6 800 м
[Cb calv Ac und]
-0.7 -1.5 94 -9 -9 прохладно 1022.1 999.2
03 17.01 СВ 10 10 км слабый ливневой снег 10/8 1000 м
[Cb calv Ac und]
-0.7 -1.4 95 -9 -9 прохладно 1021.9 999.0
06 17.01 СВ 10-15
{15}
10 км снежные зёрна {ливн. осадки} 10/10 150 м
[St]
-0.1 -0.8 95 -9 -9 прохладно 1023.5 1000.7 -1.6 0.8 3
09 17.01 СВ 11-13
{15}
10 км слабый дождь {снег} 10/6 800 м
[Frnb As op]
0.0 -0.6 96 -9 -9 прохладно 1024.2 1001.4
12 17.01 СВ 11-13
{15}
3100 м дымка {снег, дождь} 10/10 120 м
[St]
+0.6 0.0 96 -8 -8 холодно 1023.6 1000.8
15 17.01 СВ 8 1400 м слабая морось {туман} 10/10 50 м
[St]
0.0 -0.1 99 -8 -8 прохладно 1025.0 1002.1
18 17.01 СВ 9-12
{13}
1200 м слабая переохл. морось (гололёд) {туман} 10/10 120 м
[St]
-0.1 -0.2 99 -8 -8 прохладно 1025.4 1002.5 +1.2 0.4
21 17.01 СВ 9 300 м слабая переохл. морось (гололёд) {туман} ?/? -0.2 -0.3 99 -8 -8 прохладно 1025.3 1002.4
00 18.01 СВ 8-12
{12}
200 м слабая переохл. морось (гололёд) {туман} ?/? -0.1 -0.2 99 -8 -8 по сезону 1025.3 1002.4
03 18.01 СВ 7
{12}
200 м слабая переохл. морось (гололёд) {туман} [диам. гололёда 13 мм] ?/? -0.1 -0.2 99 -7 -7 по сезону 1025.3 1002.4 -0.2 0.6
06 18.01 СВ 6
{10}
6000 м дымка {морось, туман} [диам. гололёда 14 мм] 10/10 120 м
[St]
-0.4 -0.7 98 -7 -7 по сезону 1026.4 1003.5 -0.5 0.5
09 18.01 СВ 13-17
{17}
6000 м снежные зёрна [диам. гололёда 14 мм] 10/10 120 м
[St]
-0.5 -0.9 97 -10 -10 холодно 1027.1 1004.1
12 18.01 СВ 12-16
{18}
5000 м снежные зёрна {морось} 10/10 180 м
[St]
-0.6 -1.0 97 -10 -10 очень
холодно
1026.9 1003.9

 

Местоположение метеостанции Симферополь (Крым, Россия): широта 45.03 долгота 33.97 высота над уровнем моря 181 м.

В архиве по умолчанию представлена погода в Симферополе за последнюю неделю. Архивные данные за месяц целиком и за предыдущие месяцы, начиная с января 2011 года, Вы можете получить, выбрав интересующий диапазон дат из раскрывающегося списка и нажав кнопку "Ввод!".

Внимание! Время в таблицах - всемирное. Для получения местного времени необходимо прибавить поправку, которая в Симферополе равна 3 ч.

Ветер - указаны скорость ветра в м/с - средняя за 10 мин, порывы в срок и между сроками (в фигурных скобках) и направление, откуда дует ветер: С - северный, СВ - северо-восточный, В - восточный, ЮВ - юго-восточный, Ю - южный, ЮЗ - юго-западный, З - западный, СЗ - северо-западный.
Видимость - горизонтальная дальность видимости в метрах или километрах. При видимости от 1 до 10 км при отсутствии осадков обычно наблюдается дымка, при ухудшении видимости до 1 км и менее - туман. В сухую погоду видимость может ухудшаться дымом, пылью или мглою.
Явления - указаны атмосферные явления, наблюдавшиеся в срок или в последний час перед сроком; фигурными скобками обозначены явления, наблюдавшиеся между сроками (за 1-3 часа до срока); квадратными скобками обозначены град или гололедные отложения с указанием их диаметра в мм.
Облачность - указаны через наклонную черту общая и нижняя облачность в баллах и высота нижней границы облаков в метрах; квадратными скобками обозначены формы облаков: Ci - перистые, Cs - перисто-слоистые, Cc - перисто-кучевые, Ac - высококучевые, As - высокослоистые, Sc - слоисто-кучевые, Ns - слоисто-дождевые, Cu - кучевые, Cb - кучево-дождевые. Подробнее классификацию облаков см. в Атласе облаков (PDF).
T - Температура воздуха - температура, измеренная на высоте 2 м над землей.
Td - Температура точки росы - температура, при понижении до которой содержащийся в воздухе водяной пар достигнет насыщения.
f - Относительная влажность воздуха - влажноcть воздуха, измеренная на высоте 2 м над землей.
Te - Эффективная температура - температура, которую ощущает одетый по сезону человек в тени. Характеристика душности погоды. При расчете учитывается влияние влажности воздуха и скорости ветра на теплоощущения человека.
Tes - Эффективная температура на солнце - температура, которую ощущает человек, с поправкой на солнечный нагрев. Характеристика знойности погоды. Зависит от высоты солнца над горизонтом, облачности и скорости ветра. Ночью, в пасмурную погоду, а также при ветре 12 м/с и более поправка равна нулю.
P - Атмосферное давление - приведенное к уровню моря атмосферное давление.
Po - Атмосферное давление - измеренное на уровне метеостанции атмосферное давление.
Tmin - Минимальная температура - минимум температуры воздуха на высоте 2 м над землей.
Tmax - Максимальная температура - максимум температуры воздуха на высоте 2 м над землей.
R - Количество осадков - Количество выпавших осадков, мм. При наведении курсора мыши на число - период времени, за который выпало указанное количество осадков.
S - Снежный покров - Высота снежного покрова, см. При наведении курсора мыши на число - состояние снежного покрова и степень покрытия местности в баллах.